{"data":{"norad_id":59092,"intl_designator":"2024-041U","name":"STARLINK-31310","alt_names":[],"object_type":"PAYLOAD","status":"ACTIVE","operator":null,"country":"US","launch_date":"2024-02-29","launch_site_code":"AFETR","launch_vehicle":null,"mission":null,"orbit_class":"UNKNOWN","rcs_meters":null,"size_class":null,"mass_kg":null,"dimensions":null,"purposes":["comms"],"wikipedia_slug":null,"has_3d_model":false,"image_url":null,"decayed_at":null,"tle_current":{"epoch":"2026-05-24T15:35:58.509600Z","epoch_age_seconds":115461,"freshness":"FRESH","line1":"1 59092U 24041U   26144.64998275 -.00000264  00000+0 -67964-7 0  9995","line2":"2 59092  43.0024 242.1490 0000838 288.7217  71.3544 15.27572311125888","mean_motion":15.27572311,"eccentricity":8.38e-5,"inclination_deg":43.0024,"raan_deg":242.149,"arg_perigee_deg":288.7217,"mean_anomaly_deg":71.3544,"bstar":-6.7964e-8,"rev_number":12588,"period_min":94.267223203157,"perigee_km":482.4971504441,"apogee_km":483.64708909257,"semimajor_km":6861.2091197683,"source":"CELESTRAK","updated_at":"2026-05-25T13:38:18.831244Z"}}}